Zurück zum Katalog

BLOCK DM-SL DEB

AktivMEO
NORAD 100099·DEBRIS·🇷🇺 Russia

Gestartet Feb 12, 2026 von Baikonur Cosmodrome

Loading…

Nächste Überflüge (nächste 24 Stunden)

TLE

AktuellSource: Space-Track

Epoche: Sep 13, 2026, 19:31 UTC

1 A0099U 26028D   26256.81337250 -.00000314  00000-0  00000-0 0  9995
2 A0099   0.1662  63.9927 0117173  79.8150 216.9920  1.03066241  2353

Verfolge BLOCK DM-SL DEB in Echtzeit mit AllMySat

Download on the App Store